This demonstration page uses our WeatherBlox Daily Observations layout. Learn more.

38.89511, -77.03637

Hourly Observations for September 7, 2015

Temp ( °F °C ) Dew Point ( °F °C ) Humidity (%) Winds ( mph kmh ) Pressure ( in mb ) Visibility ( mi km ) Precip ( " mm )
12:52 am 00:52 Clear 74 23.3 62 16.7 67 67 Calm 30.14 1021 10 16.0934 0 0
1:52 am 01:52 Clear 72 22.2 63 17.2 73 73 Calm 30.14 1021 10 16.0934 0 0
2:52 am 02:52 Partly Cloudy 72 22.2 62 16.7 71 71 Calm 30.13 1020 10 16.0934 0 0
3:52 am 03:52 Mostly Cloudy 71 21.7 62 16.7 73 73 Calm 30.12 1020 10 16.0934 0 0
4:52 am 04:52 Mostly Cloudy 71 21.7 63 17.2 76 76 Calm 30.13 1020 10 16.0934 0 0
5:16 am 05:16 Mostly Cloudy 70 21 63 17 78 78 N 3 6 30.15 1021 10 16.0934 0 0
5:48 am 05:48 Partly Cloudy 72 22 63 17 73 73 Calm 30.15 1021 10 16.0934 0 0
5:52 am 05:52 Partly Cloudy 70 21.1 63 17.2 79 79 Calm 30.13 1020 10 16.0934 0 0
6:52 am 06:52 Partly Cloudy 70 21.1 63 17.2 79 79 Calm 30.14 1021 10 16.0934 0 0
7:52 am 07:52 Mostly Sunny 72 22.2 66 18.9 82 82 Calm 30.16 1021 10 16.0934 0 0
8:52 am 08:52 Mostly Sunny 75 23.9 68 20 79 79 SSW 5 7 30.16 1021 10 16.0934 0 0
9:52 am 09:52 Mostly Sunny 78 25.6 69 20.6 74 74 SSE 5 7 30.16 1021 10 16.0934 0 0
10:52 am 10:52 Partly Cloudy 82 27.8 69 20.6 65 65 S 8 13 30.15 1021 10 16.0934 0 0
11:52 am 11:52 Partly Cloudy 83 28.3 68 20 61 61 SSE 7 11 30.14 1021 10 16.0934 0 0
12:52 pm 12:52 Partly Cloudy 86 30 67 19.4 53 53 S 7 11 30.13 1020 10 16.0934 0 0
1:52 pm 13:52 Partly Cloudy 87 30.6 66 18.9 50 50 S 8 13 30.11 1020 10 16.0934 0 0
2:52 pm 14:52 Partly Cloudy 89 31.7 65 18.3 45 45 S 10 17 30.08 1019 10 16.0934 0 0
3:52 pm 15:52 Partly Cloudy 89 31.7 66 18.9 47 47 S 10 17 30.06 1018 10 16.0934 0 0
4:52 pm 16:52 Mostly Sunny 89 31.7 67 19.4 48 48 SSE 10 17 30.04 1017 10 16.0934 0 0
5:52 pm 17:52 Partly Cloudy 88 31.1 68 20 52 52 S 7 11 30.04 1017 10 16.0934 0 0
6:52 pm 18:52 Partly Cloudy 86 30 70 21.1 59 59 S 9 15 30.04 1017 10 16.0934 0 0
7:52 pm 19:52 Mostly Clear 84 28.9 71 21.7 65 65 S 9 15 30.05 1018 10 16.0934 0 0
8:52 pm 20:52 Clear 82 27.8 69 20.6 65 65 S 9 15 30.06 1018 10 16.0934 0 0
9:52 pm 21:52 Clear 80 26.7 69 20.6 69 69 S 12 19 30.07 1018 10 16.0934 0 0
10:52 pm 22:52 Mostly Clear 79 26.1 69 20.6 72 72 S 10 17 30.07 1018 10 16.0934 0 0
11:52 pm 23:52 Mostly Clear 77 25 69 20.6 77 77 SSW 10 17 30.08 1019 10 16.0934 0 0

Powered by AerisWeather